COSMOS 1867 (18187 NORAD) Tracking and Keplerian Element Data

This shows tracking and keplerian element data for the satellite.

Feedback or suggestion? Click here.




ElementValue
Catalog18187
NameCOSMOS 1867
Epoch Orbit80352
Epoch Day16.01861644
Epoch Year2022
RAAN224.2726
Inclination65.0091
Eccentricity0.0020546
Argument of Perigee264.9551
Mean Anonmoly94.9188
Mean Motion14.31131412
Decay Rate-5.6E-07
L11 18187U 87060A 22016.01861644 -.00000056 00000+0 16736-4 0 9995
L22 18187 65.0091 224.2726 0020546 264.9551 94.9188 14.31131412803520

Live tracking and technical data element details for COSMOS 1867 (NORAD 18187). COSMOS 1867 can be tracked NOW for your location showing map with azimuth and elevation plus other details from your city location.

Track the satellite on the map from your city or location and see movement details for azimuth, elevation, latitude, longitude, range, height, and movement on the map or in text.







IsCatalogInMostPopularTable: catalog: 18187, numindb: 310
Update: records affected: 1



GetName: 18187 COSMOS 1867

Hit Count: updated at: Mon, 17 Jan 2022 02:15:34 GMT